[[{"header":{"parameterUnit":"m.s-1","parameterCategory":1,"la1":30.2991,"la2":30.254,"lo1":-89.0895,"lo2":-89.0444,"dy":0.0017,"dx":0.0017,"nx":28,"ny":28,"refTime":"2025-05-30T09:00:00:Z","depth":0,"parameterNumber":2,"parameterNumberName":"U-component_of_WINDS"},"data":[0,0,0,0,0,0,0,0,0,0,0,0,0,0,0,0,0,0,0,0,0,0,0,0,0,0,0,0,0,0,0,0,0,0,0,0,0,0,0,0,0,0,0,0,0,0,0,0,0,0,0,0,0,0,0,0,0,0,1.4449,1.4449,0,1.4466,1.4466,1.4467,1.4496,1.4497,1.4497,1.4498,1.4514,1.4514,1.4514,0,0,0,0,0,0,0,0,0,0,0,0,0,1.444,1.444,1.4449,1.4449,1.4449,1.4466,1.4466,1.4467,1.4496,1.4497,1.4498,1.4498,1.4514,1.4514,1.4514,0,0,0,0,0,0,0,0,0,0,0,0,0,1.4449,1.444,1.4449,1.4466,1.4468,1.4466,1.4466,1.4467,1.4496,1.4497,1.4498,1.4499,1.4514,1.4514,1.4514,1.4496,0,0,1.4514,1.4514,0,0,0,0,0,0,0,0,1.4449,1.445,1.4463,1.4465,1.4467,1.448,1.4469,1.4477,1.4496,1.4485,1.4498,1.4499,1.4502,1.4503,1.4504,1.4497,1.4498,1.4514,1.4514,1.4513,1.4513,0,0,0,0,0,0,0,1.4448,1.4449,1.4456,1.4464,1.4466,1.4473,1.4475,1.4471,1.4489,1.4486,1.4489,1.449,1.4503,1.4504,1.4505,1.4498,1.4514,1.4514,1.4513,1.4513,1.4476,1.4475,0,0,0,0,0,0,1.4445,1.4448,1.4455,1.4456,1.446,1.4472,1.4475,1.4475,1.4489,1.4492,1.4489,1.4492,1.4504,1.4505,1.4506,1.4484,1.4513,1.4513,1.4513,1.4477,1.4476,1.4475,0,0,0,0,0,0,1.4445,1.4446,1.4454,1.4453,1.4455,1.4471,1.4471,1.4475,1.4476,1.4491,1.4494,1.4487,1.4505,1.4506,1.4498,1.4485,1.4513,1.4513,1.4478,1.4477,1.4476,1.4443,0,0,0,0,0,0,1.4445,1.4445,1.4439,1.4453,1.4455,1.4447,1.4471,1.4475,1.4476,1.4479,1.449,1.4493,1.4506,1.4498,1.4498,1.4486,1.4513,1.4479,1.4478,1.4476,1.4445,1.444,1.4436,0,0,0,0,0,1.4444,1.4429,1.4438,1.4439,1.4447,1.4446,1.4447,1.4463,1.4475,1.4468,1.4478,1.4493,1.4488,1.4497,1.4497,1.4485,1.448,1.4478,1.4476,1.4447,1.4441,1.4437,0,0,0,0,0,0,1.4412,1.4431,1.4442,1.443,1.4437,1.4451,1.4443,1.4456,1.4459,1.4461,1.448,1.4482,1.4472,1.4478,1.4489,1.4468,1.4486,1.4484,1.4464,1.4459,1.4455,1.4452,1.4513,0,0,0,0,0,1.4404,1.4403,1.4419,1.4407,1.441,1.4426,1.4426,1.4438,1.4445,1.4447,1.4456,1.4462,1.4462,1.4461,1.4462,1.4447,1.4449,1.4438,1.4434,1.4431,1.4428,1.4419,1.4414,1.4468,1.4468,1.4468,0,0,1.4387,1.4397,1.4394,1.4401,1.4407,1.4404,1.4428,1.4424,1.4422,1.4446,1.4439,1.4447,1.4454,1.4443,1.4438,1.4447,1.4414,1.4428,1.4425,1.4424,1.4416,1.4411,1.4406,1.4467,1.4467,1.4467,0,0,1.4353,1.4362,1.4352,1.4358,1.4367,1.4378,1.4376,1.4389,1.4395,1.4388,1.4407,1.4404,1.4404,1.4408,1.441,1.4379,1.4392,1.4379,1.4356,1.4347,1.4343,1.4339,1.4326,1.4321,1.4377,1.4377,1.4377,0,1.433,1.4327,1.4346,1.434,1.4342,1.4366,1.4356,1.4361,1.4369,1.437,1.4381,1.438,1.4387,1.4376,1.4368,1.437,1.4367,1.4377,1.4342,1.4339,1.4335,1.4323,1.4318,1.4375,1.4375,1.4375,1.4376,0,1.4297,1.4295,1.4286,1.4294,1.4295,1.4288,1.4305,1.4304,1.4316,1.4326,1.4318,1.4328,1.433,1.4329,1.4341,1.432,1.4325,1.4339,1.4357,1.4328,1.4316,1.4312,1.4372,1.4373,1.4374,1.4374,0,0,1.4242,1.4261,1.4257,1.4261,1.4273,1.4271,1.4265,1.4268,1.4266,1.4272,1.4266,1.4265,1.4278,1.4281,1.4293,1.4286,1.4258,1.4301,1.4301,1.429,1.4234,1.4221,1.4215,1.4268,1.4268,1.4267,1.4232,0,1.4209,1.4199,1.4216,1.4201,1.4198,1.4221,1.4216,1.4222,1.4232,1.423,1.4241,1.4239,1.4258,1.4259,1.4253,1.4263,1.4247,1.4266,1.4261,1.4261,1.4255,1.421,1.4196,1.4163,1.4228,1.4227,1.4227,0,1.4168,1.4172,1.4158,1.4171,1.417,1.4164,1.4168,1.4167,1.4175,1.4183,1.4186,1.4201,1.4195,1.4214,1.4205,1.4218,1.4218,1.4222,1.4221,1.4219,1.424,1.4204,1.4153,1.4147,1.4221,1.4221,1.4221,0,1.4126,1.4128,1.4119,1.4122,1.4138,1.4133,1.4139,1.4148,1.4149,1.4153,1.4153,1.4156,1.4157,1.4158,1.4173,1.4187,1.4162,1.4183,1.4166,1.4165,1.4157,1.4157,1.4103,1.4162,1.4162,1.4162,1.4162,0,1.4086,1.4076,1.4101,1.4095,1.4084,1.4104,1.4092,1.4101,1.4109,1.4104,1.4126,1.4121,1.4143,1.414,1.4152,1.4142,1.4143,1.4148,1.415,1.4144,1.4143,1.4142,1.4143,1.4161,1.4161,1.4161,1.4161,0,1.4036,1.4053,1.4044,1.406,1.4064,1.4055,1.4068,1.4063,1.4074,1.4069,1.4069,1.4086,1.4084,1.4101,1.4102,1.411,1.4093,1.4102,1.409,1.4092,1.4073,1.4073,1.4013,1.4005,1.4072,1.4071,1.4071,0,1.4008,1.4,1.4015,1.4014,1.4019,1.4018,1.4018,1.4039,1.4038,1.4047,1.4041,1.4041,1.4042,1.4038,1.4051,1.4052,1.4058,1.4038,1.4058,1.4052,1.4055,1.4054,1.4052,1.4032,1.4031,1.4031,1.403,0,1.3955,1.3963,1.3964,1.3967,1.3968,1.3971,1.3976,1.3974,1.3996,1.3995,1.3993,1.3994,1.3996,1.3995,1.3999,1.4005,1.402,1.4024,1.4019,1.4011,1.4004,1.4005,1.4075,1.4024,1.4025,1.4025,1.4026,1.4026,1.3913,1.3906,1.3916,1.3916,1.3922,1.3926,1.3922,1.3933,1.3933,1.3936,1.3948,1.3944,1.3953,1.3959,1.3964,1.3961,1.3971,1.3965,1.3963,1.396,1.3955,1.4007,1.3962,1.3962,1.3962,1.3962,1.3962,0,1.3858,1.3866,1.3866,1.3872,1.3872,1.3889,1.3895,1.3893,1.3889,1.3896,1.3897,1.3895,1.3895,1.3908,1.3909,1.3904,1.3911,1.3903,1.3902,1.3903,1.3948,1.395,1.3898,1.3898,1.3898,1.3898,1.3898,1.3898,1.383,1.382,1.383,1.3823,1.3831,1.3827,1.3829,1.3833,1.3839,1.3836,1.3836,1.3845,1.3854,1.3856,1.3856,1.386,1.3858,1.3847,1.3853,1.3894,1.39,1.3906,1.3908,1.3847,1.3847,1.3808,1.3807,1.3807]},{"header":{"parameterUnit":"m.s-1","parameterCategory":1,"la1":30.2991,"la2":30.254,"lo1":-89.0895,"lo2":-89.0444,"dy":0.0017,"dx":0.0017,"nx":28,"ny":28,"refTime":"2025-05-30T09:00:00:Z","depth":0,"parameterNumber":3,"parameterNumberName":"V-component_of_WINDS"},"data":[0,0,0,0,0,0,0,0,0,0,0,0,0,0,0,0,0,0,0,0,0,0,0,0,0,0,0,0,0,0,0,0,0,0,0,0,0,0,0,0,0,0,0,0,0,0,0,0,0,0,0,0,0,0,0,0,0,0,-3.1191,-3.1192,0,-3.1262,-3.1263,-3.1264,-3.1214,-3.1212,-3.121,-3.1208,-3.1277,-3.1281,-3.1285,0,0,0,0,0,0,0,0,0,0,0,0,0,-3.101,-3.1014,-3.1191,-3.1192,-3.1193,-3.1262,-3.1263,-3.1264,-3.1215,-3.1212,-3.1209,-3.1207,-3.1276,-3.1281,-3.1285,0,0,0,0,0,0,0,0,0,0,0,0,0,-3.1086,-3.1015,-3.1191,-3.1177,-3.1176,-3.1262,-3.1263,-3.1264,-3.1215,-3.1212,-3.1209,-3.1206,-3.1274,-3.128,-3.1286,-3.1388,0,0,-3.1304,-3.1306,0,0,0,0,0,0,0,0,-3.1082,-3.1092,-3.1178,-3.1178,-3.1177,-3.1226,-3.1225,-3.1306,-3.1216,-3.12,-3.1208,-3.1204,-3.1263,-3.1269,-3.129,-3.1391,-3.1394,-3.1304,-3.1308,-3.131,-3.1312,0,0,0,0,0,0,0,-3.1076,-3.1089,-3.1219,-3.1179,-3.1179,-3.1166,-3.1173,-3.124,-3.1249,-3.1202,-3.1198,-3.1207,-3.1262,-3.1284,-3.1291,-3.1395,-3.1304,-3.1309,-3.1313,-3.1315,-3.1585,-3.1588,0,0,0,0,0,0,-3.1073,-3.1085,-3.1217,-3.1221,-3.1121,-3.1172,-3.118,-3.1214,-3.1248,-3.125,-3.121,-3.1205,-3.1276,-3.1284,-3.1293,-3.1416,-3.131,-3.1316,-3.1319,-3.1581,-3.1586,-3.159,0,0,0,0,0,0,-3.1069,-3.1085,-3.1214,-3.1152,-3.1168,-3.1179,-3.1217,-3.1217,-3.1239,-3.1255,-3.1256,-3.1232,-3.1274,-3.1285,-3.1365,-3.1418,-3.1318,-3.1324,-3.1577,-3.1583,-3.1588,-3.1662,0,0,0,0,0,0,-3.1064,-3.1084,-3.1124,-3.1154,-3.1171,-3.1286,-3.122,-3.1221,-3.125,-3.1244,-3.1275,-3.1277,-3.1272,-3.1357,-3.1371,-3.1424,-3.1328,-3.1572,-3.158,-3.1586,-3.1655,-3.1669,-3.1681,0,0,0,0,0,-3.1058,-3.1141,-3.1126,-3.1142,-3.1221,-3.1289,-3.1299,-3.1292,-3.1254,-3.1294,-3.1304,-3.1276,-3.1409,-3.1365,-3.1381,-3.1436,-3.1569,-3.1577,-3.1585,-3.1649,-3.1666,-3.1681,0,0,0,0,0,0,-3.1116,-3.1145,-3.1128,-3.1224,-3.1255,-3.1281,-3.133,-3.1311,-3.1352,-3.1344,-3.1333,-3.1341,-3.1425,-3.1438,-3.1389,-3.1537,-3.1483,-3.1495,-3.1526,-3.1543,-3.1556,-3.1551,-3.1333,0,0,0,0,0,-3.114,-3.1193,-3.1215,-3.1297,-3.1313,-3.132,-3.1349,-3.1341,-3.1372,-3.1384,-3.14,-3.143,-3.1479,-3.1511,-3.1557,-3.1656,-3.1662,-3.1702,-3.1715,-3.1726,-3.1736,-3.179,-3.1808,-3.1617,-3.1617,-3.1616,0,0,-3.1189,-3.1212,-3.1246,-3.1309,-3.1332,-3.1387,-3.1331,-3.1391,-3.1432,-3.1393,-3.1471,-3.1483,-3.1516,-3.1607,-3.1647,-3.162,-3.1791,-3.1736,-3.1745,-3.1749,-3.18,-3.1819,-3.1835,-3.1622,-3.1621,-3.162,0,0,-3.1308,-3.1331,-3.1402,-3.1426,-3.1462,-3.1466,-3.1483,-3.1513,-3.152,-3.1598,-3.157,-3.1617,-3.1701,-3.1726,-3.175,-3.1879,-3.1855,-3.1894,-3.1964,-3.2017,-3.2032,-3.2045,-3.2092,-3.2108,-3.1904,-3.1904,-3.1905,0,-3.1366,-3.1449,-3.1441,-3.1504,-3.1532,-3.1501,-3.1573,-3.1596,-3.1645,-3.1665,-3.1634,-3.174,-3.176,-3.1856,-3.1888,-3.1908,-3.1926,-3.1891,-3.203,-3.2044,-3.2056,-3.21,-3.2118,-3.1909,-3.1908,-3.1908,-3.1908,0,-3.1517,-3.1575,-3.1628,-3.1678,-3.1712,-3.1779,-3.178,-3.1816,-3.1805,-3.1812,-3.1891,-3.1914,-3.1964,-3.1986,-3.1975,-3.2081,-3.2063,-3.2032,-3.1977,-3.2079,-3.212,-3.2137,-3.1916,-3.1914,-3.1913,-3.1911,0,0,-3.1675,-3.172,-3.1739,-3.1761,-3.1799,-3.1843,-3.1908,-3.1959,-3.199,-3.2024,-3.2078,-3.215,-3.2122,-3.2149,-3.2141,-3.2187,-3.2289,-3.215,-3.215,-3.2175,-3.2407,-3.2431,-3.245,-3.2273,-3.2276,-3.2278,-3.2404,0,-3.1797,-3.1912,-3.1907,-3.2015,-3.2068,-3.2039,-3.2096,-3.2125,-3.2133,-3.2179,-3.2186,-3.2238,-3.2196,-3.2212,-3.2257,-3.2267,-3.2335,-3.2258,-3.2323,-3.2325,-3.2317,-3.2472,-3.2497,-3.2615,-3.242,-3.2423,-3.2425,0,-3.1954,-3.1996,-3.2109,-3.214,-3.2162,-3.2213,-3.2259,-3.2303,-3.2335,-3.2337,-3.2368,-3.2353,-3.2418,-3.2361,-3.2451,-3.2399,-3.2425,-3.2434,-3.2439,-3.2445,-3.2382,-3.2483,-3.2652,-3.267,-3.245,-3.2448,-3.2446,0,-3.2059,-3.2143,-3.2222,-3.2241,-3.2278,-3.2315,-3.2332,-3.2361,-3.2392,-3.2431,-3.2451,-3.2497,-3.2522,-3.2558,-3.2555,-3.2514,-3.2647,-3.259,-3.2651,-3.2651,-3.268,-3.2679,-3.2857,-3.2696,-3.2696,-3.2696,-3.2695,0,-3.2196,-3.2267,-3.2269,-3.2318,-3.2396,-3.2389,-3.2466,-3.2479,-3.2505,-3.2555,-3.2532,-3.2579,-3.2572,-3.262,-3.2618,-3.2693,-3.2704,-3.2708,-3.2706,-3.271,-3.271,-3.2728,-3.272,-3.27,-3.2699,-3.2698,-3.2698,0,-3.2326,-3.2331,-3.2415,-3.2444,-3.2452,-3.2509,-3.2533,-3.2578,-3.2584,-3.2648,-3.2663,-3.2672,-3.2726,-3.2727,-3.2789,-3.2787,-3.2879,-3.2868,-3.2869,-3.2867,-3.2928,-3.2923,-3.3125,-3.3151,-3.2973,-3.2974,-3.2976,0,-3.2414,-3.2468,-3.2502,-3.2535,-3.2555,-3.2607,-3.2638,-3.2633,-3.2667,-3.2707,-3.2748,-3.2801,-3.2843,-3.2931,-3.2943,-3.299,-3.298,-3.3048,-3.2987,-3.299,-3.2982,-3.2979,-3.2985,-3.306,-3.3062,-3.3063,-3.3065,0,-3.2569,-3.2569,-3.2616,-3.2664,-3.2703,-3.274,-3.2774,-3.2802,-3.28,-3.2839,-3.2896,-3.2928,-3.2992,-3.3044,-3.309,-3.3106,-3.3086,-3.3083,-3.31,-3.3105,-3.3104,-3.3106,-3.2902,-3.3079,-3.3078,-3.3076,-3.3076,-3.3075,-3.2681,-3.2728,-3.276,-3.2813,-3.2839,-3.2872,-3.2917,-3.2928,-3.2976,-3.3028,-3.3022,-3.3084,-3.3114,-3.3174,-3.3194,-3.3243,-3.3219,-3.3243,-3.3249,-3.3256,-3.3263,-3.3096,-3.3251,-3.325,-3.325,-3.325,-3.3249,0,-3.2836,-3.2855,-3.2904,-3.2954,-3.2996,-3.2973,-3.301,-3.3046,-3.3102,-3.3133,-3.3175,-3.3239,-3.329,-3.3306,-3.3355,-3.3391,-3.3383,-3.3404,-3.3402,-3.3406,-3.328,-3.3262,-3.341,-3.341,-3.341,-3.341,-3.341,-3.341,-3.2921,-3.3,-3.3003,-3.3094,-3.3112,-3.3175,-3.3198,-3.3228,-3.3252,-3.3326,-3.3369,-3.3379,-3.3404,-3.3454,-3.35,-3.3503,-3.3523,-3.3548,-3.3548,-3.3431,-3.3414,-3.3399,-3.3381,-3.3552,-3.3553,-3.3669,-3.367,-3.3671]}]]